TimeMDT,TemperatureF,Dew PointF,Humidity,Sea Level PressureIn,VisibilityMPH,Wind Direction,Wind SpeedMPH,Gust SpeedMPH,PrecipitationIn,Events,Conditions,WindDirDegrees,DateUTC
12:56 AM,37.0,30.9,79,29.86,-9999.0,Calm,Calm,-,N/A,,Unknown,0,2013-05-28 06:56:00
1:56 AM,39.0,26.1,60,29.82,-9999.0,Variable,3.5,-,N/A,,Unknown,0,2013-05-28 07:56:00
2:56 AM,37.9,28.0,68,29.82,-9999.0,Calm,Calm,-,N/A,,Unknown,0,2013-05-28 08:56:00
3:56 AM,34.0,32.0,92,29.82,-9999.0,Calm,Calm,-,0.01,,Unknown,0,2013-05-28 09:56:00
4:56 AM,33.1,30.9,92,29.81,-9999.0,Calm,Calm,-,0.05,,Unknown,0,2013-05-28 10:56:00
5:56 AM,33.1,30.9,92,29.80,-9999.0,Calm,Calm,-,0.01,,Unknown,0,2013-05-28 11:56:00
6:56 AM,34.0,32.0,92,29.78,-9999.0,Calm,Calm,-,N/A,,Unknown,0,2013-05-28 12:56:00
7:56 AM,35.1,33.1,92,29.78,-9999.0,Calm,Calm,-,N/A,,Unknown,0,2013-05-28 13:56:00
8:56 AM,37.9,34.0,86,29.77,-9999.0,Calm,Calm,-,N/A,,Unknown,0,2013-05-28 14:56:00
9:56 AM,39.9,35.1,83,29.78,-9999.0,East,4.6,-,N/A,,Unknown,80,2013-05-28 15:56:00
10:56 AM,43.0,34.0,71,29.75,-9999.0,ENE,4.6,-,N/A,,Unknown,60,2013-05-28 16:56:00
11:56 AM,45.0,34.0,65,29.75,-9999.0,Variable,3.5,-,N/A,,Unknown,0,2013-05-28 17:56:00
12:56 PM,46.0,32.0,58,29.73,-9999.0,Variable,5.8,-,N/A,,Unknown,0,2013-05-28 18:56:00
1:56 PM,46.0,34.0,63,29.71,-9999.0,Calm,Calm,-,N/A,,Unknown,0,2013-05-28 19:56:00
2:56 PM,48.9,32.0,52,29.70,-9999.0,Calm,Calm,-,N/A,,Unknown,0,2013-05-28 20:56:00
3:56 PM,41.0,36.0,82,29.78,-9999.0,Variable,3.5,-,N/A,,Unknown,0,2013-05-28 21:56:00
4:56 PM,39.0,37.0,93,29.82,-9999.0,WSW,3.5,-,0.04,,Unknown,250,2013-05-28 22:56:00
5:56 PM,41.0,37.9,89,29.81,-9999.0,Calm,Calm,-,0.02,,Unknown,0,2013-05-28 23:56:00
6:56 PM,39.0,37.0,93,29.81,-9999.0,Variable,3.5,-,N/A,,Unknown,0,2013-05-29 00:56:00
7:56 PM,39.0,36.0,89,29.82,-9999.0,Calm,Calm,-,N/A,,Unknown,0,2013-05-29 01:56:00
8:56 PM,39.0,37.0,93,29.79,-9999.0,Calm,Calm,-,N/A,,Unknown,0,2013-05-29 02:56:00
9:56 PM,37.9,37.0,97,29.80,-9999.0,Calm,Calm,-,N/A,,Unknown,0,2013-05-29 03:56:00
10:56 PM,37.9,35.1,89,29.77,-9999.0,Variable,4.6,-,N/A,,Unknown,0,2013-05-29 04:56:00
11:56 PM,37.0,36.0,96,29.76,-9999.0,Calm,Calm,-,N/A,,Unknown,0,2013-05-29 05:56:00